Weather History for KIML - December, 2011

Change the Weather History Date:

Sunday, December 4, 2011

  Actual Average Record
Temperature  
Mean Temperature 19 °F 30 °F  
Max Temperature 32 °F 43 °F 71 °F (1965)
Min Temperature 5 °F 17 °F -5 °F (1897)
Degree Days  
Heating Degree Days 46 35  
Month to date heating degree days 167 137  
Cooling Degree Days 0 0  
Month to date cooling degree days 0 0  
Year to date cooling degree days 1096 963  
Moisture  
Dew Point 11 °F    
Average Humidity 73    
Maximum Humidity 88    
Minimum Humidity 58    
Precipitation  
Precipitation 0.00 in 0.02 in 0.59 in (1958)
Sea Level Pressure  
Sea Level Pressure 30.32 in    
Wind  
Wind Speed 9 mph (NW)    
Max Wind Speed 18 mph    
Max Gust Speed 24 mph    
Visibility 10 miles    
Events      
T = Trace of Precipitation, MM = Missing Value Source: NWS Daily Summary

Daily Weather History Graph

Daily Weather History Graph

Search for Another Location

Airport or City:

Trip Planner

Search our weather history database for the weather conditions in past years. The results will help you decide how hot, cold, wet, or windy it might be!

Date:

Astronomy

Dec. 04, 2011 Rise Set
Actual Time 6:53 AM MST 4:19 PM MST
Civil Twilight 6:22 AM MST 4:50 PM MST
Nautical Twilight 5:48 AM MST 5:24 PM MST
Astronomical Twilight 5:15 AM MST 5:57 PM MST
Moon 12:52 PM MST (12/4) 1:19 AM MST (12/4)
Length of Visible Light 10h 27m
Length of Day
9h 26m
Waxing Gibbous, 72% of the Moon is Illuminated
Dec 4
Waxing Gibbous
Dec 10
Full
Dec 17
Last Quarter
Dec 24
New
Dec 31
First Quarter

Hourly Weather History & Observations

Time (MST) Temp. Windchill Dew Point Humidity Pressure Visibility Wind Dir Wind Speed Gust Speed Precip Events Conditions
12:53 AM 12.9 °F 0.7 °F 8.1 °F 81% 30.21 in 10.0 mi West 9.2 mph - N/A   Clear
1:53 AM 14.0 °F 2.0 °F 8.1 °F 77% 30.21 in 10.0 mi West 9.2 mph - N/A   Scattered Clouds
2:53 AM 12.0 °F 2.7 °F 7.0 °F 80% 30.20 in 10.0 mi WNW 5.8 mph - N/A   Clear
3:53 AM 10.9 °F -2.6 °F 6.1 °F 81% 30.20 in 10.0 mi West 10.4 mph - N/A   Clear
4:53 AM 10.0 °F -0.9 °F 6.1 °F 84% 30.19 in 10.0 mi WNW 6.9 mph - N/A   Clear
5:53 AM 6.1 °F -5.6 °F 3.0 °F 87% 30.22 in 10.0 mi West 6.9 mph - N/A   Clear
6:53 AM 9.0 °F -0.9 °F 5.0 °F 84% 30.23 in 10.0 mi West 5.8 mph - N/A   Clear
7:53 AM 12.9 °F 0.7 °F 8.1 °F 81% 30.23 in 10.0 mi SW 9.2 mph - N/A   Scattered Clouds
8:53 AM 19.0 °F 12.3 °F 12.9 °F 77% 30.25 in 10.0 mi West 4.6 mph - N/A   Clear
9:53 AM 21.9 °F 11.7 °F 14.0 °F 72% 30.26 in 10.0 mi WNW 9.2 mph - N/A   Clear
10:53 AM 25.0 °F 14.8 °F 15.1 °F 66% 30.25 in 10.0 mi NW 10.4 mph - N/A   Clear
11:53 AM 28.0 °F 20.0 °F 17.1 °F 63% 30.24 in 10.0 mi NW 8.1 mph - N/A   Clear
12:53 PM 30.9 °F 22.2 °F 18.0 °F 59% 30.23 in 10.0 mi NW 10.4 mph - N/A   Clear
1:53 PM 30.9 °F 20.7 °F 19.9 °F 64% 30.22 in 10.0 mi NNW 13.8 mph - N/A   Clear
2:53 PM 32.0 °F 21.6 °F 19.9 °F 61% 30.25 in 10.0 mi NW 15.0 mph - N/A   Clear
3:53 PM 30.0 °F 22.4 °F 19.9 °F 66% 30.27 in 10.0 mi NNW 8.1 mph - N/A   Clear
4:53 PM 27.0 °F 15.2 °F 19.0 °F 72% 30.33 in 10.0 mi NNE 15.0 mph 21.9 mph N/A   Partly Cloudy
5:53 PM 21.0 °F 9.9 °F 14.0 °F 74% 30.40 in 10.0 mi North 10.4 mph - N/A   Clear
6:53 PM 16.0 °F 5.3 °F 10.9 °F 81% 30.46 in 10.0 mi North 8.1 mph - N/A   Clear
7:53 PM 18.0 °F 6.1 °F 12.0 °F 78% 30.50 in 10.0 mi NNW 10.4 mph - N/A   Clear
8:53 PM 17.1 °F 4.3 °F 10.0 °F 74% 30.52 in 10.0 mi North 11.5 mph - N/A   Partly Cloudy
9:53 PM 14.0 °F 1.2 °F 7.0 °F 74% 30.57 in 10.0 mi North 10.4 mph - N/A   Partly Cloudy
10:53 PM 10.9 °F -0.8 °F 5.0 °F 77% 30.58 in 10.0 mi NW 8.1 mph - N/A   Clear
11:53 PM 10.0 °F -3.7 °F 3.9 °F 76% 30.58 in 10.0 mi NNW 10.4 mph - N/A   Clear